Location: Albany
(35.0170°S, 117.8920°E)
Time: 21:43:04
(UTC+08:00)

A-11 Canister half - Pass Details

Date: 26 January 2021
Orbit: 1525 x 1684 km, 47.3° (Epoch: 03 March)

Event Time Altitude Azimuth Distance (km) Brightness Sun altitude
Rises 09:18:01 0° 237° (WSW) 4,851 11.2 46.5°
Reaches altitude 10° 09:21:14 10° 240° (WSW) 3,840 10.8 47.2°
Maximum altitude 09:30:40 58° 315° (NW) 1,794 9.9 49.0°
Drops below altitude 10° 09:39:47 10° 31° (NNE) 3,706 11.6 50.9°
Sets 09:42:51 0° 35° (NE) 4,673 12.0 51.5°
